Time,TemperatureF,DewpointF,PressureIn,WindDirection,WindDirectionDegrees,WindSpeedMPH,WindSpeedGustMPH,Humidity,HourlyPrecipIn,Conditions,Clouds,dailyrainin,SoftwareType,DateUTC
2013-04-11 00:02:00,46.0,31.0,-100.00,South,180,9.0,15.0,55,-99.99,,,0.00,,2013-04-11 06:02:00,
2013-04-11 00:12:00,46.0,31.0,-100.00,South,180,9.0,15.0,55,-99.99,,,0.00,,2013-04-11 06:12:00,
2013-04-11 00:22:00,46.0,31.0,-100.00,South,185,11.0,15.0,55,-99.99,,,0.00,,2013-04-11 06:22:00,
2013-04-11 00:32:00,46.0,31.0,-100.00,South,185,11.0,15.0,55,-99.99,,,0.00,,2013-04-11 06:32:00,
2013-04-11 00:42:00,45.0,30.0,-100.00,ESE,105,3.0,8.0,55,-99.99,,,0.00,,2013-04-11 06:42:00,
2013-04-11 00:52:00,45.0,30.0,-100.00,ESE,105,3.0,8.0,55,-99.99,,,0.00,,2013-04-11 06:52:00,
2013-04-11 01:02:00,46.0,30.0,-100.00,South,185,17.0,20.0,54,-99.99,,,0.00,,2013-04-11 07:02:00,
2013-04-11 01:12:00,46.0,30.0,-100.00,South,185,17.0,20.0,54,-99.99,,,0.00,,2013-04-11 07:12:00,
2013-04-11 01:22:00,46.0,30.0,-100.00,South,190,16.0,22.0,54,-99.99,,,0.00,,2013-04-11 07:22:00,
2013-04-11 01:32:00,46.0,30.0,-100.00,South,190,16.0,22.0,54,-99.99,,,0.00,,2013-04-11 07:32:00,
2013-04-11 01:42:00,45.0,30.0,-100.00,SSW,210,0.0,1.0,55,-99.99,,,0.00,,2013-04-11 07:42:00,
2013-04-11 01:52:00,45.0,30.0,-100.00,SSW,210,0.0,1.0,55,-99.99,,,0.00,,2013-04-11 07:52:00,
2013-04-11 02:02:00,44.0,30.0,-100.00,South,190,13.0,14.0,56,-99.99,,,0.00,,2013-04-11 08:02:00,
2013-04-11 02:12:00,44.0,30.0,-100.00,South,190,13.0,14.0,56,-99.99,,,0.00,,2013-04-11 08:12:00,
2013-04-11 02:22:00,43.0,29.0,-100.00,SSW,210,8.0,11.0,57,-99.99,,,0.00,,2013-04-11 08:22:00,
2013-04-11 02:32:00,43.0,29.0,-100.00,SSW,210,8.0,11.0,57,-99.99,,,0.00,,2013-04-11 08:32:00,
2013-04-11 02:42:00,43.0,29.0,-100.00,North,-999,0.0,0.0,58,-99.99,,,0.00,,2013-04-11 08:42:00,
2013-04-11 02:52:00,43.0,29.0,-100.00,North,-999,0.0,0.0,58,-99.99,,,0.00,,2013-04-11 08:52:00,
2013-04-11 03:02:00,41.0,29.0,-100.00,North,-999,0.0,0.0,62,-99.99,,,0.00,,2013-04-11 09:02:00,
2013-04-11 03:12:00,41.0,29.0,-100.00,North,-999,0.0,0.0,62,-99.99,,,0.00,,2013-04-11 09:12:00,
2013-04-11 03:22:00,40.0,29.0,-100.00,SSE,155,1.0,3.0,64,-99.99,,,0.00,,2013-04-11 09:22:00,
2013-04-11 03:33:00,40.0,29.0,-100.00,SSE,155,1.0,3.0,64,-99.99,,,0.00,,2013-04-11 09:33:00,
2013-04-11 03:42:00,40.0,29.0,-100.00,SSE,155,1.0,3.0,64,-99.99,,,0.00,,2013-04-11 09:42:00,
2013-04-11 04:02:00,39.0,30.0,-100.00,SSE,160,4.0,7.0,70,-99.99,,,0.00,,2013-04-11 10:02:00,
2013-04-11 04:12:00,39.0,30.0,-100.00,SSE,160,4.0,7.0,70,-99.99,,,0.00,,2013-04-11 10:12:00,
2013-04-11 04:23:00,39.0,31.0,-100.00,SE,145,0.0,1.0,73,-99.99,,,0.00,,2013-04-11 10:23:00,
2013-04-11 04:32:00,39.0,31.0,-100.00,SE,145,0.0,1.0,73,-99.99,,,0.00,,2013-04-11 10:32:00,
2013-04-11 04:42:00,39.0,31.0,-100.00,SE,145,0.0,1.0,73,-99.99,,,0.00,,2013-04-11 10:42:00,
2013-04-11 05:12:00,41.0,32.0,-100.00,SW,220,0.0,3.0,72,-99.99,,,0.00,,2013-04-11 11:12:00,
2013-04-11 05:22:00,41.0,32.0,-100.00,North,-999,0.0,0.0,71,-99.99,,,0.00,,2013-04-11 11:22:00,
2013-04-11 05:32:00,41.0,32.0,-100.00,North,-999,0.0,0.0,71,-99.99,,,0.00,,2013-04-11 11:32:00,
2013-04-11 05:42:00,42.0,32.0,-100.00,South,170,6.0,9.0,68,-99.99,,,0.00,,2013-04-11 11:42:00,
2013-04-11 05:52:00,42.0,32.0,-100.00,South,170,6.0,9.0,68,-99.99,,,0.00,,2013-04-11 11:52:00,
2013-04-11 06:02:00,42.0,33.0,-100.00,North,-999,0.0,0.0,70,-99.99,,,0.00,,2013-04-11 12:02:00,
2013-04-11 06:12:00,42.0,33.0,-100.00,North,-999,0.0,0.0,70,-99.99,,,0.00,,2013-04-11 12:12:00,
2013-04-11 06:22:00,41.0,32.0,-100.00,North,-999,0.0,0.0,72,-99.99,,,0.00,,2013-04-11 12:22:00,
2013-04-11 06:32:00,41.0,32.0,-100.00,North,-999,0.0,0.0,72,-99.99,,,0.00,,2013-04-11 12:32:00,
2013-04-11 06:42:00,40.0,32.0,-100.00,North,-999,0.0,0.0,74,-99.99,,,0.00,,2013-04-11 12:42:00,
2013-04-11 06:52:00,40.0,32.0,-100.00,North,-999,0.0,0.0,74,-99.99,,,0.00,,2013-04-11 12:52:00,
2013-04-11 07:02:00,40.0,32.0,-100.00,North,-999,0.0,0.0,75,-99.99,,,0.00,,2013-04-11 13:02:00,
2013-04-11 07:12:00,40.0,32.0,-100.00,North,-999,0.0,0.0,75,-99.99,,,0.00,,2013-04-11 13:12:00,
2013-04-11 07:22:00,38.0,32.0,-100.00,SSW,210,2.0,3.0,78,-99.99,,,0.00,,2013-04-11 13:22:00,
2013-04-11 07:32:00,38.0,32.0,-100.00,SSW,210,2.0,3.0,78,-99.99,,,0.00,,2013-04-11 13:32:00,
2013-04-11 07:42:00,38.0,33.0,-100.00,North,-999,0.0,0.0,79,-99.99,,,0.00,,2013-04-11 13:42:00,
2013-04-11 07:52:00,38.0,33.0,-100.00,North,-999,0.0,0.0,79,-99.99,,,0.00,,2013-04-11 13:52:00,
2013-04-11 08:02:00,37.0,33.0,-100.00,North,-999,0.0,0.0,83,-99.99,,,0.00,,2013-04-11 14:02:00,
2013-04-11 08:12:00,37.0,33.0,-100.00,North,-999,0.0,0.0,83,-99.99,,,0.00,,2013-04-11 14:12:00,
2013-04-11 08:20:00,37.0,33.0,-100.00,North,-999,0.0,0.0,85,-99.99,,,0.00,,2013-04-11 14:20:00,
2013-04-11 08:22:00,37.0,33.0,-100.00,North,-999,0.0,0.0,84,-99.99,,,0.00,,2013-04-11 14:22:00,
2013-04-11 08:32:00,37.0,33.0,-100.00,North,-999,0.0,0.0,84,-99.99,,,0.00,,2013-04-11 14:32:00,
2013-04-11 08:42:00,37.0,33.0,-100.00,North,-999,0.0,0.0,85,-99.99,,,0.00,,2013-04-11 14:42:00,
2013-04-11 08:52:00,37.0,33.0,-100.00,North,-999,0.0,0.0,85,-99.99,,,0.00,,2013-04-11 14:52:00,
2013-04-11 09:02:00,37.0,33.0,-100.00,North,-999,0.0,0.0,85,-99.99,,,0.00,,2013-04-11 15:02:00,
2013-04-11 09:12:00,37.0,33.0,-100.00,North,-999,0.0,0.0,85,-99.99,,,0.00,,2013-04-11 15:12:00,
2013-04-11 11:52:00,47.0,27.0,-100.00,South,185,4.0,8.0,44,-99.99,,,0.00,,2013-04-11 17:52:00,
2013-04-11 12:02:00,47.0,27.0,-100.00,South,185,4.0,8.0,44,-99.99,,,0.00,,2013-04-11 18:02:00,
2013-04-11 12:13:00,48.0,26.0,-100.00,SSW,195,10.0,13.0,43,-99.99,,,0.00,,2013-04-11 18:13:00,
2013-04-11 12:22:00,48.0,26.0,-100.00,SSW,195,10.0,13.0,43,-99.99,,,0.00,,2013-04-11 18:22:00,
2013-04-11 12:32:00,49.0,27.0,-100.00,SSW,200,12.0,15.0,43,-99.99,,,0.00,,2013-04-11 18:32:00,
2013-04-11 12:42:00,49.0,27.0,-100.00,SSW,200,12.0,15.0,43,-99.99,,,0.00,,2013-04-11 18:42:00,
2013-04-11 12:52:00,48.0,26.0,-100.00,South,190,11.0,13.0,42,-99.99,,,0.00,,2013-04-11 18:52:00,
2013-04-11 13:03:00,48.0,26.0,-100.00,South,190,11.0,13.0,42,-99.99,,,0.00,,2013-04-11 19:03:00,
2013-04-11 13:13:00,49.0,26.0,-100.00,South,185,9.0,11.0,40,-99.99,,,-99.99,,2013-04-11 19:13:00,
2013-04-11 13:22:00,49.0,26.0,-100.00,South,185,9.0,11.0,40,-99.99,,,-99.99,,2013-04-11 19:22:00,
2013-04-11 13:32:00,49.0,26.0,-100.00,South,185,12.0,14.0,40,-99.99,,,0.00,,2013-04-11 19:32:00,
2013-04-11 13:42:00,49.0,26.0,-100.00,South,185,12.0,14.0,40,-99.99,,,0.00,,2013-04-11 19:42:00,
2013-04-11 13:52:00,50.0,27.0,-100.00,South,180,18.0,23.0,40,-99.99,,,0.00,,2013-04-11 19:52:00,
2013-04-11 14:02:00,50.0,27.0,-100.00,South,180,18.0,23.0,40,-99.99,,,0.00,,2013-04-11 20:02:00,
2013-04-11 14:13:00,50.0,26.0,-100.00,SSW,200,15.0,19.0,39,-99.99,,,0.00,,2013-04-11 20:13:00,
2013-04-11 14:22:00,50.0,26.0,-100.00,SSW,200,15.0,19.0,39,-99.99,,,0.00,,2013-04-11 20:22:00,
2013-04-11 14:33:00,50.0,26.0,-100.00,South,185,16.0,22.0,38,-99.99,,,0.00,,2013-04-11 20:33:00,
2013-04-11 14:42:00,50.0,26.0,-100.00,South,185,16.0,22.0,38,-99.99,,,0.00,,2013-04-11 20:42:00,
2013-04-11 14:52:00,51.0,25.0,-100.00,South,185,17.0,22.0,37,-99.99,,,0.00,,2013-04-11 20:52:00,
2013-04-11 15:02:00,51.0,25.0,-100.00,South,185,17.0,22.0,37,-99.99,,,0.00,,2013-04-11 21:02:00,
2013-04-11 15:12:00,50.0,26.0,-100.00,SSW,195,19.0,23.0,39,-99.99,,,0.00,,2013-04-11 21:12:00,
2013-04-11 15:22:00,50.0,26.0,-100.00,SSW,195,19.0,23.0,39,-99.99,,,0.00,,2013-04-11 21:22:00,
2013-04-11 15:33:00,49.0,26.0,-100.00,South,180,21.0,27.0,40,-99.99,,,0.00,,2013-04-11 21:33:00,
2013-04-11 15:42:00,49.0,26.0,-100.00,South,180,21.0,27.0,40,-99.99,,,0.00,,2013-04-11 21:42:00,
2013-04-11 15:53:00,49.0,26.0,-100.00,South,185,21.0,27.0,40,-99.99,,,-99.99,,2013-04-11 21:53:00,
2013-04-11 16:02:00,49.0,26.0,-100.00,South,185,21.0,27.0,40,-99.99,,,-99.99,,2013-04-11 22:02:00,
2013-04-11 16:13:00,49.0,25.0,-100.00,South,185,24.0,30.0,40,-99.99,,,0.00,,2013-04-11 22:13:00,
2013-04-11 16:23:00,49.0,25.0,-100.00,South,185,24.0,30.0,40,-99.99,,,0.00,,2013-04-11 22:23:00,
2013-04-11 16:32:00,49.0,25.0,-100.00,SSW,195,24.0,27.0,39,-99.99,,,0.00,,2013-04-11 22:32:00,
2013-04-11 16:43:00,49.0,25.0,-100.00,SSW,195,24.0,27.0,39,-99.99,,,0.00,,2013-04-11 22:43:00,
2013-04-11 16:52:00,49.0,25.0,-100.00,SSW,195,18.0,21.0,39,-99.99,,,-99.99,,2013-04-11 22:52:00,
2013-04-11 17:03:00,49.0,25.0,-100.00,SSW,195,18.0,21.0,39,-99.99,,,-99.99,,2013-04-11 23:03:00,
2013-04-11 17:12:00,48.0,24.0,-100.00,South,185,22.0,24.0,39,-99.99,,,0.00,,2013-04-11 23:12:00,
2013-04-11 17:22:00,48.0,24.0,-100.00,South,185,22.0,24.0,39,-99.99,,,0.00,,2013-04-11 23:22:00,
2013-04-11 17:32:00,47.0,24.0,-100.00,South,180,19.0,22.0,39,-99.99,,,0.00,,2013-04-11 23:32:00,
2013-04-11 17:42:00,47.0,24.0,-100.00,South,180,19.0,22.0,39,-99.99,,,0.00,,2013-04-11 23:42:00,
2013-04-11 17:52:00,47.0,24.0,-100.00,SSW,195,17.0,22.0,39,-99.99,,,0.00,,2013-04-11 23:52:00,
2013-04-11 18:02:00,47.0,24.0,-100.00,SSW,195,17.0,22.0,39,-99.99,,,0.00,,2013-04-12 00:02:00,
2013-04-11 18:12:00,46.0,23.0,-100.00,South,185,19.0,22.0,40,-99.99,,,0.00,,2013-04-12 00:12:00,
2013-04-11 18:22:00,46.0,23.0,-100.00,South,185,19.0,22.0,40,-99.99,,,0.00,,2013-04-12 00:22:00,
2013-04-11 18:32:00,46.0,23.0,-100.00,South,185,19.0,22.0,40,-99.99,,,0.00,,2013-04-12 00:32:00,
2013-04-11 18:42:00,46.0,23.0,-100.00,South,185,19.0,22.0,40,-99.99,,,0.00,,2013-04-12 00:42:00,
2013-04-11 18:52:00,45.0,23.0,-100.00,SSW,195,19.0,22.0,40,-99.99,,,0.00,,2013-04-12 00:52:00,
2013-04-11 19:02:00,45.0,23.0,-100.00,SSW,195,19.0,22.0,40,-99.99,,,0.00,,2013-04-12 01:02:00,
2013-04-11 19:12:00,45.0,23.0,-100.00,SSW,195,16.0,20.0,41,-99.99,,,-99.99,,2013-04-12 01:12:00,
2013-04-11 19:22:00,45.0,23.0,-100.00,SSW,195,16.0,20.0,41,-99.99,,,-99.99,,2013-04-12 01:22:00,
2013-04-11 19:32:00,45.0,23.0,-100.00,SSW,195,17.0,20.0,41,-99.99,,,-99.99,,2013-04-12 01:32:00,
2013-04-11 19:42:00,45.0,23.0,-100.00,SSW,195,17.0,20.0,41,-99.99,,,-99.99,,2013-04-12 01:42:00,
2013-04-11 19:52:00,44.0,22.0,-100.00,South,185,11.0,15.0,41,-99.99,,,0.00,,2013-04-12 01:52:00,
2013-04-11 20:02:00,44.0,22.0,-100.00,South,185,11.0,15.0,41,-99.99,,,0.00,,2013-04-12 02:02:00,
2013-04-11 20:12:00,44.0,22.0,-100.00,South,190,13.0,14.0,42,-99.99,,,-99.99,,2013-04-12 02:12:00,
2013-04-11 20:22:00,44.0,22.0,-100.00,South,190,13.0,14.0,42,-99.99,,,-99.99,,2013-04-12 02:22:00,
2013-04-11 20:32:00,44.0,22.0,-100.00,South,185,10.0,14.0,42,-99.99,,,-99.99,,2013-04-12 02:32:00,
2013-04-11 20:42:00,44.0,22.0,-100.00,South,185,10.0,14.0,42,-99.99,,,-99.99,,2013-04-12 02:42:00,
2013-04-11 20:52:00,43.0,22.0,-100.00,South,190,12.0,15.0,42,-99.99,,,0.00,,2013-04-12 02:52:00,
2013-04-11 21:02:00,43.0,22.0,-100.00,South,190,12.0,15.0,42,-99.99,,,0.00,,2013-04-12 03:02:00,
2013-04-11 21:12:00,41.0,22.0,-100.00,South,190,5.0,7.0,45,-99.99,,,-99.99,,2013-04-12 03:12:00,
2013-04-11 21:22:00,41.0,22.0,-100.00,South,190,5.0,7.0,45,-99.99,,,-99.99,,2013-04-12 03:22:00,
2013-04-11 21:33:00,41.0,21.0,-100.00,SSW,205,6.0,8.0,46,-99.99,,,0.00,,2013-04-12 03:33:00,
2013-04-11 21:43:00,41.0,21.0,-100.00,SSW,205,6.0,8.0,46,-99.99,,,0.00,,2013-04-12 03:43:00,
2013-04-11 21:52:00,40.0,21.0,-100.00,SSW,195,5.0,6.0,46,-99.99,,,-99.99,,2013-04-12 03:52:00,
2013-04-11 22:03:00,40.0,21.0,-100.00,SSW,195,5.0,6.0,46,-99.99,,,-99.99,,2013-04-12 04:03:00,
2013-04-11 22:13:00,40.0,21.0,-100.00,SW,215,6.0,7.0,47,-99.99,,,0.00,,2013-04-12 04:13:00,
2013-04-11 22:22:00,40.0,21.0,-100.00,SW,215,6.0,7.0,47,-99.99,,,0.00,,2013-04-12 04:22:00,
2013-04-11 22:33:00,40.0,22.0,-100.00,South,190,11.0,12.0,48,-99.99,,,-99.99,,2013-04-12 04:33:00,
2013-04-11 22:43:00,40.0,22.0,-100.00,South,190,11.0,12.0,48,-99.99,,,-99.99,,2013-04-12 04:43:00,
2013-04-11 22:52:00,40.0,22.0,-100.00,SSW,195,10.0,11.0,48,-99.99,,,0.00,,2013-04-12 04:52:00,
2013-04-11 23:03:00,40.0,22.0,-100.00,SSW,195,10.0,11.0,48,-99.99,,,0.00,,2013-04-12 05:03:00,
2013-04-11 23:12:00,38.0,22.0,-100.00,North,-999,0.0,0.0,51,-99.99,,,0.00,,2013-04-12 05:12:00,
2013-04-11 23:22:00,38.0,22.0,-100.00,North,-999,0.0,0.0,51,-99.99,,,0.00,,2013-04-12 05:22:00,
2013-04-11 23:32:00,38.0,22.0,-100.00,North,-999,0.0,0.0,52,-99.99,,,0.00,,2013-04-12 05:32:00,
2013-04-11 23:42:00,38.0,22.0,-100.00,North,-999,0.0,0.0,52,-99.99,,,0.00,,2013-04-12 05:42:00,
2013-04-11 23:52:00,37.0,22.0,-100.00,North,-999,0.0,0.0,53,-99.99,,,0.00,,2013-04-12 05:52:00,